User: anonymous   Login
Location: Kosice
(0.0000°N, 21.2500°E)
Time: 23:26:07
(UTC+02:00)
Language:

Ariane H10 - Orbit

View from above orbital plane
View from above orbital plane
View from above satellite
View from above satellite

Ground track
Ground track

The orbit data is extracted from the following two-line orbital elements,

1 15388U 84114C   21111.71960075  .00000109  00000-0  37717-3 0  9992
2 15388   7.3851 322.4367 6925153 182.5609 169.6242  2.67352486254071
Epoch (UTC): 21 April 2021 17:16:13
Eccentricity: 0.6925153
inclination: 7.3851°
perigee height: 364 km
apogee height: 30736 km
right ascension of ascending node: 322.4367°
argument of perigee: 182.5609°
revolutions per day: 2.67352486
mean anomaly at epoch: 169.6242°
orbit number at epoch: 25407

The dashed part of the orbit path shows where the satellite is in the earth's shadow,  

DLR